CZ-6A DEB, 56654

Orbit data source: Space-Track

CZ-6A DEB, 56654 is space debris in SSO originally from a launch on Fri, 11 Nov 2022 UTC launched from the Taiyaun Space Center, China (TSC). Debris objects in space refer to the collection of defunct objects orbiting the Earth. Examples of debris include non-operational satellites, rocket bodies, and fragments generated from explosions, collisions, or faulty payload assembly.

Loading next visibility...
Identifier
56654, 2022-151AGE
Orbit
SSO
Country
Flag of CNCN / PRC
Related business
Manufacturer
SAST
Mission
Spacecraft
Bus & Motor
Unknown
Mass
Unknown
Launch date (UTC)
2022-11-11 (3 years ago)
Launch vehicle
Unknown
Launch site
Taiyaun Space Center, China (TSC)
Object type
Payload
Rocket body
Debris
Shape & HBR
Unknown shape, 0.1 m
Radar Cross Section
Small (<0.1 m²)

Expand to show TLE details & history
Last TLE update: 2 days ago

TLE from 2 days ago
0 CZ-6A DEB
1 56654U 22151AGE 25348.86464871  .00000282  00000-0  22509-3 0  9996
2 56654  98.8789 318.7551 0136657 242.6995 116.0197 13.94691971134780
Epoch: 2025-12-14T20:45Z
TLE epoch observation values (Epoch: 2025-12-14T20:45:05.648Z)
Latitude
0.00002°
Longitude
-76.28988°
Altitude
959.912 km
Speed
7.349 km/s
True Right ascension
21h 15m 01s
True Declination
0° 00' 00"
Sunlit
Object was in daylight at epoch
Visualization orbit readout
Latitude
Unknown
Longitude
Unknown
Altitude
Unknown
Speed
Unknown
Apparent Right ascension
Unknown
Apparent Declination
Unknown
Sunlit
N/A
Visualization observer readout
Local Sidereal Time
11:30:58
Azimuth
Unknown
Elevation
Unknown
Doppler factor
Unknown
Orbital elements
Apogee altitude
1,009.024 km
Perigee altitude
809.844 km
Semi-major axis
7,287.571 km
Eccentricity
0.01367
Inclination
98.8789°
RAAN
318.7551°
Arg. of periapsis
242.6995°
True anomaly
117.41634°
Mean anomaly
116.0197°
Eccentric anomaly
116.71908°
Mean motion
3.48874 °/min
Orbital period
103.19 mins
BSTAR
0.00022509
Loading maneuver chart data...
Computing Atmospheric mass density...
Loading historical data...
Loading historical data...
Loading historical data...
Loading historical data...
Loading historical data...
Loading historical data...
Loading historical data...

Documentation

Showing up to 5 results
|